Weather History for PHBK - April, 2013

Change the Weather History Date:

Friday, April 26, 2013

  Actual Average Record
Temperature  
Mean Temperature 74 °F -  
Max Temperature 81 °F 83 °F 88 °F (1956)
Min Temperature 68 °F 63 °F 60 °F (1958)
Cooling Degree Days 10    
Growing Degree Days 24 (Base 50)    
Moisture  
Dew Point 64 °F    
Average Humidity 69    
Maximum Humidity 78    
Minimum Humidity 62    
Precipitation  
Precipitation 0.00 in - - ()
Sea Level Pressure  
Sea Level Pressure 30.02 in    
Wind  
Wind Speed 5 mph (North)    
Max Wind Speed 13 mph    
Max Gust Speed -    
Visibility 10 miles    
Events      
Averages and records for this station are not official NWS values.
T = Trace of Precipitation, MM = Missing Value Source: NWS Daily Summary

Daily Weather History Graph

Daily Weather History Graph

Search for Another Location

Airport or City:

Trip Planner

Search our weather history database for the weather conditions in past years. The results will help you decide how hot, cold, wet, or windy it might be!

Date:

Astronomy

Apr. 26, 2013 Rise Set
Actual Time 6:10 AM HST 7:03 PM HST
Civil Twilight 5:47 AM HST 7:26 PM HST
Nautical Twilight 5:19 AM HST 7:54 PM HST
Astronomical Twilight 4:52 AM HST 8:22 PM HST
Moon 8:28 PM HST (4/26) 6:54 AM HST (4/26)
Length of Visible Light 13h 39m
Length of Day
12h 52m
Full, 98% of the Moon is Illuminated
Apr 26
Full
May 2
Last Quarter
May 9
New
May 17
First Quarter
May 24
Full

Hourly Weather History & Observations

Time (HST) Temp. Heat Index Dew Point Humidity Pressure Visibility Wind Dir Wind Speed Gust Speed Precip Events Conditions
12:56 AM 71.1 °F - 64.0 °F 78% 30.05 in 10.0 mi East 3.5 mph - N/A   Clear
1:56 AM 71.1 °F - 61.0 °F 70% 30.04 in 10.0 mi Calm Calm - N/A   Clear
2:56 AM 70.0 °F - 60.1 °F 71% 30.01 in 10.0 mi ESE 3.5 mph - N/A   Clear
3:56 AM 69.1 °F - 60.1 °F 73% 30.01 in 10.0 mi ESE 3.5 mph - N/A   Clear
4:56 AM 68.0 °F - 60.1 °F 76% 30.00 in 10.0 mi ENE 3.5 mph - N/A   Clear
5:56 AM 68.0 °F - 60.1 °F 76% 30.00 in 10.0 mi ENE 4.6 mph - N/A   Clear
6:56 AM 69.1 °F - 60.1 °F 73% 30.03 in 10.0 mi ESE 4.6 mph - N/A   Clear
7:56 AM 75.9 °F - 62.1 °F 62% 30.04 in 10.0 mi Calm Calm - N/A   Clear
8:56 AM 77.0 °F - 66.0 °F 69% 30.04 in 10.0 mi NW 6.9 mph - N/A   Clear
9:56 AM 79.0 °F - 66.0 °F 64% 30.05 in 10.0 mi NNW 10.4 mph - N/A   Clear
10:56 AM 80.1 °F 82.7 °F 68.0 °F 67% 30.06 in 10.0 mi NW 10.4 mph - N/A   Partly Cloudy
11:56 AM 80.1 °F 82.3 °F 66.9 °F 64% 30.04 in 10.0 mi WNW 9.2 mph - N/A   Clear
12:56 PM 80.1 °F 82.3 °F 66.9 °F 64% 30.03 in 10.0 mi WNW 9.2 mph - N/A   Clear
1:56 PM 81.0 °F 83.3 °F 66.9 °F 62% 30.01 in 10.0 mi NW 10.4 mph - N/A   Clear
2:56 PM 81.0 °F 83.3 °F 66.9 °F 62% 30.00 in 10.0 mi NW 12.7 mph - N/A   Clear
3:56 PM 80.1 °F 82.3 °F 66.9 °F 64% 29.98 in 10.0 mi WNW 9.2 mph - N/A   Clear
4:56 PM 80.1 °F 82.3 °F 66.9 °F 64% 29.98 in 10.0 mi NW 8.1 mph - N/A   Clear
5:56 PM 79.0 °F - 66.9 °F 66% 29.99 in 10.0 mi NNW 6.9 mph - N/A   Clear
6:56 PM 77.0 °F - 66.9 °F 71% 30.00 in 10.0 mi North 4.6 mph - N/A   Clear
7:56 PM 75.9 °F - 66.0 °F 71% 30.01 in 10.0 mi North 5.8 mph - N/A   Clear
8:56 PM 73.0 °F - 64.0 °F 73% 30.03 in 10.0 mi SSE 4.6 mph - N/A   Partly Cloudy
9:56 PM 72.0 °F - 63.0 °F 73% 30.04 in 10.0 mi Calm Calm - N/A   Clear
10:56 PM 72.0 °F - 63.0 °F 73% 30.04 in 10.0 mi Calm Calm - N/A   Clear
11:56 PM 70.0 °F - 60.1 °F 71% 30.03 in 10.0 mi ESE 5.8 mph - N/A   Clear